Location: Unspecified
(40.8819°N, 0.0000°E)
Time: 18:48:43
(UTC+00:00)

STARS - Visible Passes

Search period start: 22 April 2024 00:00
Search period end: 02 May 2024 00:00
Orbit: 608 x 620 km, 98.1° (Epoch: 22 April)

Date Brightness Start Highest point End Pass type
(mag) Time Alt. Az. Time Alt. Az. Time Alt. Az.
22 Apr ? 00:08:40 10° NNE 00:09:33 16° NNE 00:09:33 16° NNE visible
23 Apr ? 00:24:09 10° N 00:25:14 17° N 00:25:14 17° N visible
24 Apr ? 00:39:43 10° N 00:40:54 17° N 00:40:54 17° N visible
24 Apr ? 23:19:29 10° NE 23:19:30 10° NE 23:19:30 10° NE visible
25 Apr ? 00:55:23 10° NNW 00:56:32 16° NNW 00:56:32 16° NNW visible
25 Apr ? 23:34:31 10° NNE 23:35:07 13° NNE 23:35:07 13° NNE visible
26 Apr ? 01:11:11 10° NNW 01:12:09 14° NNW 01:12:09 14° NNW visible
26 Apr ? 23:49:40 10° NNE 23:50:42 17° NNE 23:50:42 17° NNE visible
27 Apr ? 01:27:17 10° NNW 01:27:45 11° NW 01:27:45 11° NW visible
28 Apr ? 00:04:56 10° NNE 00:06:17 20° NNE 00:06:17 20° NNE visible
29 Apr ? 00:20:16 10° N 00:21:50 22° N 00:21:50 22° N visible
30 Apr ? 00:35:40 10° N 00:37:21 22° NNW 00:37:21 22° NNW visible
30 Apr ? 23:15:31 10° NE 23:15:50 11° NE 23:15:50 11° NE visible
01 May ? 00:51:10 10° N 00:52:52 20° NNW 00:52:52 20° NNW visible
01 May ? 23:30:23 10° NNE 23:31:19 15° NE 23:31:19 15° NE visible
